Regional Weather Roundup
Issued by NWS New Orleans/Baton Rouge, LA

Home | Current Version | Previous Version | Text Only | Print | Product List | Glossary On
Versions: 1 2 3 4 5 6 7 8 9 10 11 12 13 14 15 16 17 18 19 20 21 22 23 24 25 26 27 28 29 30 31 32 33 34 35 36 37 38 39 40 41 42 43 44 45 46 47 48 49 50
943
ASUS44 KLIX 180408
RWRLIX
NEW ORLEANS REGIONAL WEATHER ROUNDUP
NATIONAL WEATHER SERVICE NEW ORLEANS LA
1100 PM CDT FRI APR 17 2015

NOTE: "FAIR" INDICATES FEW OR NO CLOUDS BELOW 12,000 FEET WITH NO
      SIGNIFICANT WEATHER AND/OR OBSTRUCTIONS TO VISIBILITY.
      SKY/WX - SKY CONDITION AND SIGNIFICANT WEATHER.
      TMP - AIR TEMPERATURE.     DP    - DEWPOINT TEMPERATURE.
      RH  - RELATIVE HUMIDITY.   PRES  - PRESSURE.
      HI  - HEAT INDEX.          WCI   - WIND CHILL INDEX.

*  THESE STATIONS ARE NOT NWS OR FAA STATIONS AND ARE NOT UNDER
   NWS QUALITY CONTROL.

LAZ038-040-048-061>063-065>067-069-180500-
SOUTHEAST LOUISIANA

CITY           SKY/WX    TMP DP  RH WIND       PRES   REMARKS
N.O. AUDUBON     N/A     73  73 100 MISG        N/A
N.O. INTL ARPT CLOUDY    75  69  81 S3        29.95R
N.O. LAKEFRONT MOCLDY    77  69  76 S5        29.96R
SLIDELL        MOCLDY    72  70  93 CALM      29.94S
BATON ROUGE    CLOUDY    72  68  87 N3        29.95S
BOOTHVILLE     MOCLDY    72  69  90 CALM      29.95S
BELLE CHASSE   CLOUDY    71  69  93 SW3       29.95R
BOGALUSA*        N/A     73  67  81 CALM      29.99R
GALLIANO*      CLOUDY    73  71  94 CALM      29.95R
NEW ROADS*       N/A     72  70  91 CALM      29.95F
GONZALES*        N/A     72  72 100 CALM      29.95S
HAMMOND*       CLOUDY    72  68  88 CALM      29.97R
HOUMA*         CLOUDY    72  71  96 CALM      29.95S
PORT FOURCHON* PTCLDY    77  70  78 CALM      29.97S

$$

MSZ070-080>082-180500-
SOUTHERN MISSISSIPPI

CITY           SKY/WX    TMP DP  RH WIND       PRES   REMARKS
MCCOMB         MOCLDY    68  66  93 CALM      29.97R
GULFPORT       MOCLDY    73  70  90 CALM      29.94F
BILOXI         MOCLDY    74  74 100 SW7       29.94F
PASCAGOULA     MOCLDY    73  71  93 CALM      29.94F

$$

COASTAL OBSERVATIONS
LAKE AND NEARSHORE STATIONS

STATION/POSITION TIME  TEMP    WIND        PRES    WAVE
                       AIR SEA DIR/SP/G            HT/PER
                 (UTC) (F)     (DEG/KT/KT) (MB)    (FT/S)
PASCAGOULA       0300   74     220/  6/  7 1014.1
WAVELAND YACHT   0300   75 74  240/  3/  5 1014.1
GRAND ISLE       0300   75 76   CALM  /  1 1013.8
SOUTHWEST PASS   0300   72 63  100/  3/  4 1014.4
NEW CANAL        0300          200/  3/  4   N/A
SHELL BEACH      0300   75 76  190/  4/  5 1013.6

OFFSHORE STATIONS

STATION/POSITION TIME  TEMP    WIND        PRES    WAVE
                       AIR SEA DIR/SP/G            HT/PER
                 (UTC) (F)     (DEG/KT/KT) (MB)    (FT/S)
64 S DAUPHIN ISL 0350   74 73   CALM  /  2 1014.4    3/ 5

$$




USA.gov is the U.S. government's official web portal to all federal, state and local government web resources and services.